Ithaca, NY

11:47 PM EST on December 12, 2017 (GMT -0500)
Tompkins County

Weather History for KITH - January, 2015

Change the Weather History Date:

Thursday, January 1, 2015

  Actual Average Record
Temperature  
Mean Temperature 26 °F -  
Max Temperature 32 °F 34 °F 61 °F (1966)
Min Temperature 19 °F 16 °F -16 °F (1970)
Degree Days  
Heating Degree Days 40    
Moisture  
Dew Point 9 °F    
Average Humidity 49    
Maximum Humidity 60    
Minimum Humidity 35    
Precipitation  
Precipitation 0.00 in - - ()
Sea Level Pressure  
Sea Level Pressure 29.97 in    
Wind  
Wind Speed 11 mph (SW)    
Max Wind Speed 16 mph    
Max Gust Speed 23 mph    
Visibility 10 miles    
Events      
Averages and records for this station are not official NWS values.
T = Trace of Precipitation, MM = Missing Value Source: NWS Daily Summary

Daily Weather History Graph

Daily Weather History Graph

Search for Another Location

Airport or City:

Trip Planner

Search our weather history database for the weather conditions in past years. The results will help you decide how hot, cold, wet, or windy it might be!

Date:

Astronomy

Jan. 01, 2015 Rise Set
Actual Time 7:35 AM EST 4:43 PM EST
Civil Twilight 7:03 AM EST 5:15 PM EST
Nautical Twilight 6:28 AM EST 5:50 PM EST
Astronomical Twilight 5:54 AM EST 6:24 PM EST
Moon 2:17 PM EST (1/1) 3:59 AM EST (1/1)
Length of Visible Light 10h 11m
Length of Day
9h 07m
Waxing Gibbous, 88% of the Moon is Illuminated
Jan 1
Waxing Gibbous
Jan 4
Full
Jan 13
Last Quarter
Jan 20
New
Jan 26
First Quarter

Hourly Weather History & Observations

Time (EST) Temp. Windchill Dew Point Humidity Pressure Visibility Wind Dir Wind Speed Gust Speed Precip Events Conditions
12:56 AM 19.0 °F 6.8 °F 5.0 °F 54% 30.05 in 10.0 mi SW 11.5 mph - N/A   Overcast
1:56 AM 20.1 °F 9.5 °F 6.1 °F 55% 30.04 in 10.0 mi WSW 9.2 mph - N/A   Overcast
2:56 AM 20.1 °F 9.5 °F 6.1 °F 55% 30.03 in 10.0 mi SW 9.2 mph - N/A   Overcast
3:56 AM 20.1 °F 8.1 °F 6.1 °F 55% 30.04 in 10.0 mi SW 11.5 mph - N/A   Overcast
4:56 AM 20.1 °F 9.5 °F 6.1 °F 55% 30.04 in 10.0 mi SSW 9.2 mph - N/A   Overcast
5:56 AM 20.1 °F 8.8 °F 7.2 °F 57% 30.05 in 10.0 mi SW 10.4 mph - N/A   Overcast
6:19 AM 19.4 °F 9.5 °F 6.8 °F 58% 29.99 in 10.0 mi SW 8.1 mph - N/A   Overcast
6:56 AM 21.0 °F 9.9 °F 7.2 °F 55% 30.04 in 10.0 mi SW 10.4 mph - N/A   Overcast
7:56 AM 21.0 °F 10.6 °F 9.1 °F 60% 30.04 in 10.0 mi SW 9.2 mph - N/A   Mostly Cloudy
8:56 AM 23.0 °F 10.6 °F 9.1 °F 55% 30.04 in 10.0 mi SW 13.8 mph - N/A   Scattered Clouds
9:56 AM 23.0 °F 11.1 °F 8.1 °F 53% 30.02 in 10.0 mi WSW 12.7 mph - N/A   Partly Cloudy
10:56 AM 23.0 °F 12.4 °F 8.1 °F 53% 29.99 in 10.0 mi SSW 10.4 mph 17.3 mph N/A   Clear
11:56 AM 27.1 °F 16.4 °F 8.1 °F 45% 29.95 in 10.0 mi SSW 12.7 mph - N/A   Clear
12:56 PM 29.1 °F 17.5 °F 7.2 °F 40% 29.90 in 10.0 mi SW 16.1 mph 23.0 mph N/A   Clear
1:56 PM 31.1 °F 21.4 °F 8.1 °F 38% 29.87 in 10.0 mi South 12.7 mph - N/A   Clear
2:56 PM 32.0 °F 22.1 °F 7.2 °F 35% 29.87 in 10.0 mi WSW 13.8 mph - N/A   Clear
3:56 PM 31.1 °F 23.1 °F 8.1 °F 38% 29.87 in 10.0 mi WSW 9.2 mph - N/A   Clear
4:56 PM 32.0 °F 23.6 °F 9.1 °F 38% 29.87 in 10.0 mi WSW 10.4 mph - N/A   Mostly Cloudy
5:56 PM 32.9 °F 23.2 °F 10.0 °F 39% 29.88 in 10.0 mi WSW 13.8 mph - N/A   Mostly Cloudy
6:56 PM 32.0 °F 23.0 °F 11.1 °F 42% 29.90 in 10.0 mi WSW 11.5 mph - N/A   Scattered Clouds
7:56 PM 32.0 °F 24.2 °F 11.1 °F 42% 29.93 in 10.0 mi WSW 9.2 mph 18.4 mph N/A   Overcast
8:56 PM 32.0 °F 23.0 °F 12.0 °F 44% 29.93 in 10.0 mi WSW 11.5 mph - N/A   Overcast
9:56 PM 32.0 °F 21.6 °F 14.0 °F 48% 29.95 in 10.0 mi West 15.0 mph - N/A   Overcast
10:56 PM 32.0 °F 21.2 °F 15.1 °F 50% 29.98 in 10.0 mi West 16.1 mph 21.9 mph N/A   Overcast
11:56 PM 32.0 °F 21.2 °F 16.2 °F 52% 30.00 in 10.0 mi West 16.1 mph - N/A   Overcast